TimeCST,TemperatureF,Dew PointF,Humidity,Sea Level PressureIn,VisibilityMPH,Wind Direction,Wind SpeedMPH,Gust SpeedMPH,PrecipitationIn,Events,Conditions,WindDirDegrees,DateUTC
12:53 AM,43.0,37.0,80,30.09,10.0,NE,6.9,-,N/A,,Overcast,50,2012-11-09 06:53:00
1:53 AM,42.1,37.0,82,30.10,10.0,NE,4.6,-,N/A,,Overcast,50,2012-11-09 07:53:00
2:11 AM,42.8,37.4,81,30.08,10.0,NE,6.9,-,N/A,,Overcast,50,2012-11-09 08:11:00
2:53 AM,43.0,37.9,82,30.12,10.0,NNE,6.9,-,N/A,,Overcast,30,2012-11-09 08:53:00
3:07 AM,42.8,37.4,81,30.09,10.0,NE,8.1,-,N/A,,Overcast,40,2012-11-09 09:07:00
3:39 AM,42.8,37.4,81,30.10,10.0,NNE,10.4,-,N/A,,Overcast,20,2012-11-09 09:39:00
3:53 AM,42.1,37.0,82,30.12,10.0,NNE,10.4,-,N/A,,Overcast,30,2012-11-09 09:53:00
4:53 AM,41.0,36.0,82,30.14,10.0,NE,15.0,-,N/A,,Overcast,40,2012-11-09 10:53:00
5:53 AM,39.9,36.0,86,30.15,9.0,NE,13.8,-,N/A,,Overcast,40,2012-11-09 11:53:00
6:53 AM,39.0,36.0,89,30.16,9.0,NE,12.7,-,N/A,,Overcast,40,2012-11-09 12:53:00
7:13 AM,39.2,35.6,87,30.14,8.0,NE,9.2,-,N/A,,Overcast,50,2012-11-09 13:13:00
7:53 AM,39.0,37.0,93,30.18,3.0,NE,10.4,-,N/A,,Overcast,40,2012-11-09 13:53:00
8:02 AM,39.2,37.4,93,30.16,2.5,NE,8.1,-,N/A,,Overcast,40,2012-11-09 14:02:00
8:09 AM,39.2,37.4,93,30.16,3.0,NE,10.4,-,N/A,,Overcast,40,2012-11-09 14:09:00
8:53 AM,39.0,37.0,93,30.18,5.0,NE,9.2,-,N/A,,Overcast,50,2012-11-09 14:53:00
9:53 AM,39.9,37.0,89,30.17,10.0,ENE,11.5,-,N/A,,Overcast,60,2012-11-09 15:53:00
10:00 AM,39.2,37.4,93,30.15,10.0,ENE,9.2,-,N/A,,Overcast,60,2012-11-09 16:00:00
10:53 AM,41.0,37.0,86,30.18,10.0,ENE,15.0,-,N/A,,Overcast,60,2012-11-09 16:53:00
11:53 AM,39.9,37.0,89,30.16,10.0,ENE,12.7,-,N/A,,Overcast,60,2012-11-09 17:53:00
12:53 PM,41.0,37.0,86,30.16,10.0,NE,12.7,-,N/A,,Overcast,50,2012-11-09 18:53:00
1:53 PM,39.9,36.0,86,30.15,10.0,ENE,17.3,23.0,N/A,,Overcast,60,2012-11-09 19:53:00
2:01 PM,39.2,35.6,87,30.13,10.0,ENE,13.8,23.0,N/A,,Overcast,60,2012-11-09 20:01:00
2:53 PM,37.9,35.1,89,30.16,10.0,ENE,16.1,21.9,N/A,,Overcast,60,2012-11-09 20:53:00
3:53 PM,37.9,35.1,89,30.17,10.0,ENE,12.7,-,N/A,,Overcast,60,2012-11-09 21:53:00
4:53 PM,37.9,34.0,86,30.17,10.0,ENE,16.1,21.9,N/A,,Overcast,60,2012-11-09 22:53:00
5:53 PM,37.9,34.0,86,30.17,10.0,ENE,15.0,-,N/A,,Overcast,60,2012-11-09 23:53:00
6:33 PM,37.4,33.8,87,30.14,10.0,ENE,12.7,-,N/A,,Overcast,60,2012-11-10 00:33:00
6:53 PM,37.9,34.0,86,30.17,10.0,ENE,12.7,-,N/A,,Overcast,60,2012-11-10 00:53:00
7:53 PM,37.9,34.0,86,30.17,10.0,ENE,12.7,-,N/A,,Overcast,60,2012-11-10 01:53:00
8:53 PM,37.9,34.0,86,30.17,10.0,ENE,10.4,-,N/A,,Overcast,70,2012-11-10 02:53:00
9:53 PM,37.9,33.1,83,30.17,10.0,ENE,12.7,-,N/A,,Overcast,70,2012-11-10 03:53:00
10:53 PM,37.0,33.1,86,30.17,10.0,ENE,9.2,-,N/A,,Overcast,70,2012-11-10 04:53:00
11:45 PM,37.4,32.0,81,30.14,10.0,ENE,10.4,-,N/A,,Overcast,60,2012-11-10 05:45:00
11:53 PM,37.0,32.0,82,30.16,10.0,ENE,10.4,-,N/A,,Overcast,60,2012-11-10 05:53:00